Temp
14 14 14 14 14 16 16 16 16 16 16 16 16 16 16 16 16 16 15 15 15 15 15 15 15 15 16 16 16 16 16 16 16 16 16 16 17 17 16 16 17 17 16 17 18 18 17 16 17 19 19 19 19 19 19 19 18 19 20 20 20 19 19 21 19 18 19 18 19 18 17 17 17 17 16 15 13 14 15 14 13 14 15 14 13
14 14 14 14 14 15 16 16 16 16 16 16 16 15 15 16 15 15 15 16 16 16 16 15 15 16 16 16 16 17 16 16 16 16 16 16 17 17 17 16 17 17 18 18 19 18 18 18 18 19 18 19 19 19 19 19 19 19 20 20 20 19 19 20 19 19 19 18 19 18 17 17 18 17 16 15 14 14 15 15 14 15 16 15 14
13 13 14 14 14 15 15 15 15 15 15 15 15 15 15 15 15 15 16 16 16 16 16 16 16 16 16 16 16 17 17 17 16 16 16 17 17 17 17 17 17 18 18 18 18 18 18 19 19 18 18 18 19 19 19 19 20 20 20 20 19 19 19 20 20 19 19 19 19 19 18 18 18 18 17 16 15 15 16 16 16 16 16 15 15
13 13 13 14 14 14 15 15 14 14 15 15 15 15 15 15 15 16 16 16 15 16 16 16 16 16 16 16 16 16 16 17 16 16 17 17 17 17 17 17 17 18 18 18 18 18 18 19 19 18 18 18 18 19 19 19 19 20 19 19 18 18 18 19 20 20 20 19 19 19 19 18 18 18 17 16 16 16 17 16 16 16 16 16 16
13 13 13 13 14 14 14 14 14 14 15 15 15 15 15 15 15 15 15 15 15 15 16 16 16 16 16 16 16 16 16 16 16 17 17 17 18 18 18 19 18 18 18 18 18 18 18 18 19 18 18 18 18 19 19 19 19 20 18 17 18 19 18 18 19 20 20 20 19 19 18 18 18 18 18 17 17 17 17 17 17 17 16 16 16
13 13 13 13 13 13 13 14 14 14 14 15 15 15 15 15 15 15 15 15 15 15 15 15 15 15 15 15 16 16 16 16 17 17 18 18 18 19 19 19 19 18 18 18 18 18 18 18 18 18 18 18 18 19 19 19 19 19 18 17 18 19 18 18 19 19 20 20 19 18 18 18 18 18 18 18 18 18 18 17 17 17 16 16 16
13 13 12 13 12 12 13 13 14 14 14 14 14 15 15 15 15 15 15 15 16 16 16 15 15 15 15 15 16 17 16 17 18 18 18 18 18 18 19 18 18 18 18 18 18 18 18 18 18 18 18 18 18 18 18 18 19 19 19 18 19 18 18 19 19 19 19 20 19 19 19 18 18 18 18 18 18 18 18 18 18 17 17 16 17
13 12 12 12 12 12 12 13 14 14 14 14 14 15 15 15 15 15 15 15 16 16 16 16 15 15 15 15 16 16 17 17 18 18 18 19 18 18 18 18 18 18 18 18 18 18 18 18 18 18 18 18 18 17 18 18 18 19 18 18 19 19 18 19 19 19 19 19 19 19 19 19 18 18 18 18 18 18 18 18 18 18 17 17 17
12 12 12 12 12 12 12 13 14 13 13 14 14 14 14 14 14 14 14 15 15 15 15 15 15 15 15 16 15 16 17 17 17 18 18 19 19 18 18 18 18 18 18 18 18 18 18 17 17 17 17 17 17 17 17 17 18 18 18 18 18 18 19 19 19 19 20 20 20 19 19 19 19 18 18 18 18 18 18 18 18 18 18 17 17
13 12 12 12 12 12 12 12 13 13 13 13 13 13 13 13 14 14 14 14 14 14 14 14 14 14 15 15 15 15 17 17 17 17 18 18 18 18 18 18 18 18 18 18 18 17 17 17 17 17 17 17 17 17 17 17 17 18 18 18 18 18 19 19 19 20 20 20 20 20 20 20 19 18 18 18 18 18 17 17 18 18 18 18 18
13 12 12 12 12 12 12 12 12 13 13 13 13 13 13 13 13 13 13 13 13 13 13 13 14 14 14 15 15 15 17 17 17 17 17 18 18 18 18 18 18 18 18 18 18 17 16 16 17 17 17 17 17 17 17 17 17 18 18 17 17 18 18 19 19 19 20 20 20 20 20 20 19 18 18 18 17 17 17 17 18 18 18 18 18
12 12 12 12 12 12 11 11 11 11 11 12 12 12 12 12 12 12 12 12 13 13 13 13 13 14 14 14 14 16 17 17 17 17 17 17 17 18 18 18 18 18 18 18 18 17 16 16 16 16 16 17 17 17 17 17 17 18 18 17 17 18 18 18 18 19 19 20 19 19 19 19 18 18 18 17 17 17 17 17 17 17 17 18 18
12 12 12 11 11 11 11 10 10 9 10 10 10 10 10 11 11 11 11 12 12 12 12 13 13 13 13 13 14 15 16 17 17 17 17 17 17 18 18 18 18 18 18 18 17 17 17 16 15 15 16 16 16 17 17 17 17 17 17 17 17 17 17 17 17 17 18 18 19 18 18 18 18 17 16 16 16 16 17 17 17 17 17 17 17
12 12 11 11 11 11 11 10 9 8 9 9 9 9 9 9 10 10 11 11 11 12 12 12 12 13 13 13 14 15 16 16 17 17 17 17 17 17 18 18 18 17 17 17 17 16 16 16 16 15 15 15 15 16 16 16 16 16 16 16 16 16 16 16 16 16 16 17 17 17 16 16 16 15 14 15 15 16 16 17 16 16 16 15 15
12 11 10 10 10 10 10 9 8 8 8 8 8 8 8 8 8 9 10 10 11 11 12 12 12 13 13 13 13 14 14 15 16 16 16 16 16 16 16 16 17 16 16 15 15 15 15 16 15 15 15 15 15 15 16 16 16 16 15 15 15 15 16 16 16 15 15 15 16 15 14 14 14 14 14 14 14 14 15 15 15 15 14 13 13
11 11 10 9 9 10 10 9 8 7 8 8 8 8 7 8 7 8 9 9 9 11 12 12 11 12 13 12 12 12 13 14 14 15 15 15 15 16 15 15 15 15 14 14 14 14 14 14 14 14 14 15 15 15 16 16 16 16 15 14 14 15 15 15 15 15 15 15 15 14 14 14 14 14 14 14 13 13 13 14 13 13 13 13 14
11 10 9 9 9 9 9 9 8 7 7 7 7 7 7 7 7 7 7 8 8 9 10 10 9 10 12 11 10 10 12 13 13 13 13 13 14 15 14 14 13 13 12 13 13 13 13 13 14 14 14 14 15 15 15 15 16 16 15 14 13 13 13 13 13 13 14 14 14 14 14 13 13 13 13 13 13 12 13 14 14 13 14 14 15
11 10 9 9 9 9 9 9 8 7 7 7 7 7 7 7 7 6 6 6 7 7 8 9 9 10 10 9 9 9 10 11 12 12 12 13 13 13 13 13 12 11 11 12 12 12 12 13 14 14 14 14 14 14 14 15 15 15 15 15 14 12 11 11 12 12 12 13 13 13 13 12 12 13 13 13 13 12 13 14 13 13 14 14 14
11 10 9 9 8 8 8 8 8 8 7 7 6 6 7 7 6 6 6 6 6 6 7 8 8 9 8 8 9 9 9 10 11 12 12 12 13 13 13 13 12 12 12 11 11 12 13 13 13 14 14 13 13 14 14 14 14 14 14 14 13 11 10 11 11 11 11 11 11 11 12 12 12 12 12 12 12 12 12 12 12 12 13 13 13
10 10 10 9 8 8 8 8 8 8 7 6 7 7 7 6 6 6 6 5 5 5 6 7 8 8 7 8 8 8 9 9 10 11 12 12 12 12 12 12 12 11 11 11 11 12 12 12 12 12 12 12 13 13 13 13 13 13 13 13 12 11 10 10 11 11 10 10 11 11 11 11 11 11 11 11 11 11 11 11 11 11 12 13 13
10 10 10 9 8 8 8 7 7 7 7 7 7 7 7 7 7 6 6 5 5 5 5 6 7 7 7 7 8 8 8 9 9 10 11 11 12 12 12 12 11 11 11 11 11 11 11 11 11 11 11 11 11 12 12 12 12 12 12 12 12 11 10 10 10 10 10 10 11 11 10 11 11 11 11 10 10 10 10 10 10 11 11 12 13
10 9 9 9 8 8 7 7 6 7 7 7 7 7 7 8 8 8 7 6 6 5 5 5 6 6 6 7 7 7 7 8 8 9 10 10 10 11 11 11 11 11 11 10 10 10 10 10 10 10 10 10 10 11 11 11 11 12 11 12 11 11 10 10 10 10 10 10 11 11 11 11 11 11 11 10 10 10 10 10 10 10 10 10 11
9 9 9 9 8 8 7 7 6 6 6 7 7 7 7 7 7 8 8 7 6 6 7 7 7 6 6 6 7 6 6 7 7 8 8 9 9 9 9 10 10 10 10 9 8 8 9 9 9 9 9 9 9 10 10 10 10 11 10 11 10 10 10 10 11 11 11 11 11 11 11 11 11 11 10 10 9 9 9 9 9 9 9 9 9
8 8 8 8 8 8 7 7 6 6 6 6 6 6 6 6 7 7 7 7 6 6 6 7 7 7 6 6 6 6 6 6 7 7 7 7 8 8 8 9 9 9 9 8 8 7 7 8 8 8 8 9 9 9 9 9 9 9 9 10 10 10 10 10 11 11 11 11 11 11 10 11 10 10 10 9 9 8 8 8 8 8 8 8 8
8 8 8 8 8 8 8 7 7 6 6 6 6 6 6 5 5 5 5 6 6 6 6 6 6 6 6 6 5 6 6 6 6 6 6 6 6 7 7 8 8 8 8 8 7 7 7 7 8 8 8 8 8 9 9 9 9 9 9 9 9 9 10 10 10 11 10 11 10 10 9 9 9 9 8 8 8 8 8 8 8 8 8 8 7
8 8 8 8 8 8 8 8 7 7 7 7 6 6 5 5 5 5 5 5 5 5 5 5 6 6 6 6 5 5 6 6 6 6 6 6 6 6 6 7 7 7 7 7 7 7 7 7 7 8 8 8 8 8 8 8 8 8 9 9 9 9 9 10 10 10 10 10 9 9 9 8 8 8 8 8 8 9 9 9 9 9 9 9 8
8 8 8 8 7 7 7 7 7 7 6 6 6 6 6 5 5 4 4 5 5 5 5 5 5 5 5 5 5 5 6 6 6 6 6 6 6 6 6 6 6 6 7 7 7 7 7 7 7 7 7 7 8 8 8 8 8 8 8 9 9 8 9 9 9 9 9 8 8 8 8 8 8 8 8 8 8 8 8 9 9 9 9 9 9
8 8 8 8 7 7 7 6 7 6 6 5 5 6 6 6 5 4 4 4 5 5 5 5 5 5 5 5 5 5 5 5 6 6 6 6 6 6 6 6 6 6 6 6 6 6 6 6 6 6 7 7 7 7 7 8 8 8 8 8 8 8 8 8 7 7 7 7 7 7 7 8 8 8 8 8 8 8 8 8 8 9 9 9 9
8 8 8 8 8 7 7 7 7 7 6 5 4 4 5 5 5 4 4 4 4 5 5 5 5 5 5 5 5 5 4 4 4 5 5 6 6 6 6 6 6 6 6 6 6 6 6 6 6 6 7 7 6 6 7 7 7 7 7 7 7 7 6 6 6 6 6 6 7 7 7 8 8 8 8 8 8 8 8 8 8 9 9 9 9
8 8 8 8 8 8 8 8 7 7 7 6 6 5 4 5 5 4 4 4 4 5 4 4 5 5 4 5 5 5 4 4 4 5 5 6 6 6 6 6 6 6 5 6 6 6 6 6 6 6 6 6 6 6 6 7 7 7 7 7 7 6 6 6 6 6 6 6 6 7 7 8 8 8 8 8 8 8 7 7 8 8 9 9 9
9 8 8 8 8 8 8 8 8 8 8 7 7 7 6 5 4 4 4 4 4 4 4 4 4 4 4 3 4 4 4 4 5 5 5 5 5 6 6 6 6 6 5 5 5 5 5 5 5 5 5 5 5 5 5 6 6 6 6 6 6 6 5 5 5 5 6 6 6 6 7 7 8 8 8 8 8 8 8 8 8 9 9 9 9
9 9 8 8 8 8 8 8 8 8 8 8 8 8 7 7 5 5 4 4 4 4 4 4 4 4 4 3 3 3 4 4 4 5 5 5 5 5 5 5 5 5 5 5 5 5 5 4 4 4 4 4 4 4 4 5 5 5 5 5 5 5 5 5 5 6 6 6 6 6 7 7 7 7 7 7 8 8 8 8 8 8 8 8 8
8 8 8 8 8 8 8 8 8 8 8 8 8 7 7 7 7 6 6 5 5 5 4 4 4 4 4 3 3 3 3 4 4 4 4 5 5 5 5 5 5 5 5 5 5 5 5 5 5 5 5 4 4 4 4 4 5 5 5 5 5 5 5 5 5 5 5 5 5 6 6 6 6 6 6 7 7 7 7 7 8 7 7 8 8
7 7 8 8 8 8 8 8 8 8 8 8 7 7 7 7 7 7 7 7 6 6 5 5 4 4 4 3 3 3 3 4 4 4 4 4 5 5 5 5 5 5 5 6 6 6 6 6 6 6 5 5 5 5 5 5 5 5 5 5 5 5 4 5 5 5 5 5 5 5 6 6 6 6 6 6 7 7 7 7 7 8 8 8 8
7 7 7 7 8 8 8 8 8 8 8 8 7 7 7 7 7 7 7 7 7 7 7 6 5 4 4 3 3 3 3 4 4 4 4 4 5 5 5 5 5 6 6 6 6 6 6 6 7 6 6 6 6 5 5 5 5 5 5 5 5 5 5 5 5 5 5 5 5 5 5 6 6 6 6 6 7 7 7 7 7 7 7 8 8
8 8 7 7 7 7 7 7 7 7 7 8 7 7 7 7 7 7 7 7 7 7 7 7 6 5 5 4 3 3 3 4 4 4 4 4 5 6 6 7 7 7 6 6 6 5 5 5 5 5 5 5 5 5 5 5 5 5 5 5 5 5 5 5 5 5 5 5 5 5 5 5 6 6 6 6 6 6 6 6 6 6 6 7 7
7 7 7 7 7 7 7 7 6 6 7 7 7 7 7 7 7 7 7 7 7 7 8 7 7 6 6 5 4 3 3 3 3 3 4 4 4 5 6 7 6 6 6 5 5 5 5 4 4 4 4 4 4 4 4 4 4 4 4 5 5 4 4 4 4 4 5 5 4 4 5 5 5 6 6 6 6 6 6 5 5 5 5 6 6
6 6 6 7 7 7 7 7 7 7 7 7 7 7 7 7 7 7 7 7 7 7 7 7 7 6 6 6 5 4 4 4 4 4 3 4 4 5 5 5 5 5 5 5 5 4 4 4 4 4 4 4 4 4 4 4 4 4 4 4 3 3 3 4 4 4 4 5 5 5 5 5 6 6 6 6 6 6 6 6 5 5 5 5 6
6 6 6 6 6 7 7 7 7 7 7 7 7 7 6 7 7 7 7 7 7 6 7 7 6 6 5 5 5 5 5 5 4 4 4 4 4 5 5 4 4 4 5 5 5 4 4 3 3 3 3 3 3 3 3 3 4 4 4 4 3 3 4 4 4 4 5 5 5 5 6 6 6 6 6 6 5 5 5 5 6 6 6 5 5
7 6 6 6 7 7 7 7 7 7 7 7 7 7 7 7 7 7 7 7 7 6 6 6 6 5 4 4 4 5 6 6 5 5 4 4 4 5 5 4 4 4 4 4 4 4 4 3 3 3 3 3 3 3 3 3 3 3 4 4 4 4 4 5 5 5 5 5 5 5 5 5 6 6 6 5 5 5 5 5 5 5 5 5 4
8 7 6 7 7 7 7 7 7 7 7 7 7 7 7 7 7 7 7 7 7 6 6 6 6 5 4 3 4 5 6 6 6 5 5 5 4 4 4 4 4 4 3 3 4 4 4 4 3 3 3 3 3 3 3 3 3 3 4 4 4 4 4 4 4 4 5 5 5 5 5 5 6 6 5 5 5 5 5 5 5 5 5 5 5
8 8 7 7 7 7 7 7 7 7 7 7 7 7 7 7 7 7 7 7 7 6 6 6 6 5 4 4 4 5 5 6 6 5 5 5 5 4 4 4 4 4 3 3 3 3 3 3 3 3 2 2 3 3 3 3 3 3 3 4 4 4 4 4 3 4 4 4 4 4 4 4 5 5 4 5 5 5 5 5 5 5 5 5 4
8 8 8 7 7 7 7 7 7 7 7 6 6 6 6 7 7 7 7 7 7 7 7 7 6 6 5 4 4 5 5 6 5 5 5 5 5 4 4 4 4 3 3 3 2 2 2 3 3 3 2 1 2 2 2 3 3 3 3 3 3 4 4 4 3 3 4 4 3 3 3 4 4 4 4 5 5 5 5 5 5 5 5 5 4
8 8 7 7 7 7 7 7 7 7 6 6 6 6 6 7 7 7 7 7 7 7 7 6 6 6 6 6 5 6 6 6 5 5 5 5 4 4 4 4 3 3 3 3 2 2 2 2 2 2 1 1 1 1 1 1 2 2 3 3 3 3 3 3 3 3 3 3 3 4 4 4 4 5 5 4 5 5 5 5 5 5 5 5 5
8 8 8 8 8 7 7 7 7 7 6 6 7 7 7 7 7 7 7 7 7 7 7 7 6 6 6 6 6 6 6 6 5 5 5 4 4 4 4 4 3 3 3 3 2 1 2 2 2 1 1 1 1 1 1 1 1 1 1 2 2 2 2 1 1 1 2 2 3 4 4 4 4 5 5 4 4 5 5 4 4 4 4 4 4
7 7 8 8 8 8 8 8 7 7 7 7 7 7 7 7 7 6 7 7 6 6 7 7 7 6 6 6 6 6 6 6 6 5 5 5 5 4 4 4 3 3 3 2 2 1 1 1 1 1 1 1 1 1 1 1 0 0 1 1 1 1 1 1 1 1 1 1 2 3 3 4 4 4 4 4 4 4 4 4 4 4 4 4 4
7 7 7 7 8 8 8 7 7 7 7 7 7 7 7 7 7 6 6 6 6 6 6 7 7 6 6 6 6 6 6 6 6 6 5 5 5 5 4 3 3 3 3 2 2 1 1 1 1 0 0 0 0 0 0 0 0 0 0 0 0 1 1 1 1 1 1 1 1 2 2 3 3 4 3 3 4 4 4 3 4 3 3 3 4
7 7 7 7 8 8 8 8 7 7 7 7 7 7 7 7 7 7 7 7 6 7 7 7 7 7 6 6 6 6 6 6 6 6 6 5 5 5 4 3 3 3 3 2 2 2 1 1 1 0 0 0 0 0 -0 0 0 0 -0 -0 0 1 1 1 0 0 1 1 1 1 1 2 3 3 3 3 3 4 4 4 4 3 3 3 4
7 7 7 7 7 8 8 8 8 7 7 7 7 7 7 7 7 7 7 7 7 7 7 7 7 7 7 6 6 6 6 6 6 6 6 5 5 5 5 4 3 3 3 3 2 2 1 1 1 1 0 0 0 0 0 -0 -0 -0 -0 0 0 0 0 0 0 0 1 1 1 1 1 1 2 2 2 2 2 3 3 3 3 3 3 3 3
7 7 7 7 7 7 8 8 8 8 7 7 7 8 7 7 7 7 7 7 7 7 7 7 7 7 6 6 6 6 6 6 6 6 6 5 5 5 5 4 3 3 3 3 3 2 1 1 1 1 1 1 1 1 0 0 0 0 0 0 0 0 -0 -0 -0 0 0 0 -0 0 1 1 1 2 2 2 2 2 2 2 3 3 3 3 3
7 7 7 7 7 7 8 8 8 8 8 7 7 8 7 7 7 7 7 7 7 7 7 7 7 7 6 6 6 6 6 6 6 6 6 5 5 5 5 4 4 3 3 3 3 2 2 1 1 1 1 1 1 1 0 -0 0 0 0 0 0 0 -0 -0 -1 -1 -0 -0 -0 -0 0 0 1 1 1 2 2 2 2 2 2 2 3 3 3
Height
808 806 804 803 802 800 798 796 794 793 791 790 789 788 788 788 788 787 786 786 786 785 786 788 790 792 795 798 800 800 802 802 802 802 803 804 805 807 808 810 811 813 815 816 817 818 820 821 822 823 824 824 825 827 828 830 831 831 832 833 833 835 835 834 837 841 842 844 845 847 849 850 851 853 854 855 855 856 858 858 858 859 861 862 862
808 806 804 802 801 799 798 796 794 793 791 789 788 787 788 788 788 787 786 787 787 787 787 789 791 794 797 799 800 799 800 802 801 801 802 803 804 805 807 808 810 811 813 814 815 817 818 820 821 822 823 824 825 826 827 829 830 831 831 831 832 834 835 834 836 840 841 843 845 846 848 849 850 852 853 854 855 856 857 858 858 860 861 862 863
808 806 804 802 801 799 798 796 795 793 790 789 788 787 788 788 788 787 787 787 788 787 787 788 791 794 797 799 799 799 800 800 800 800 801 802 803 804 806 807 809 810 812 813 815 816 817 818 820 822 823 824 825 826 827 828 828 828 829 830 831 833 835 834 835 838 840 842 844 845 847 849 850 851 853 854 855 856 857 858 859 860 861 862 863
808 806 804 803 801 799 798 796 795 793 790 789 788 788 788 788 788 787 787 788 788 788 787 788 791 794 797 797 797 798 799 799 799 800 801 801 802 804 806 807 808 809 811 812 814 815 816 817 819 821 822 824 825 825 826 827 827 826 828 830 831 832 835 835 835 837 840 842 843 845 846 848 850 851 852 853 854 855 856 857 858 859 860 861 862
808 806 805 803 801 799 798 797 795 793 791 789 788 788 788 788 788 788 788 789 789 789 788 790 792 796 798 797 796 797 798 799 799 800 801 802 802 804 805 806 807 808 810 811 812 813 815 816 818 820 822 823 824 825 826 827 827 826 827 829 830 832 834 836 836 837 839 841 843 845 846 848 849 850 851 852 853 854 855 856 857 858 859 860 861
809 807 806 804 802 800 799 797 795 794 792 790 789 789 789 789 789 788 788 789 790 790 790 792 794 796 797 798 798 797 798 799 800 801 802 802 803 804 804 805 807 808 809 810 812 813 814 816 818 820 821 822 824 824 825 826 826 826 827 828 829 831 834 836 836 837 838 840 842 845 846 847 848 849 850 851 851 852 853 855 856 857 858 859 860
810 808 806 805 803 801 799 798 796 794 792 791 790 789 789 789 789 789 789 789 790 791 792 793 794 795 797 798 798 797 798 800 801 801 802 803 804 804 804 806 807 808 810 811 812 813 814 816 818 819 821 822 823 824 825 826 827 826 828 829 829 830 833 835 837 838 839 839 841 843 844 846 847 848 849 850 851 851 852 853 854 855 857 858 859
812 810 808 806 804 802 800 799 796 795 793 792 791 789 788 788 788 788 788 789 790 791 792 793 794 795 796 798 799 798 799 801 801 801 803 803 804 804 805 806 808 809 811 812 813 814 815 817 818 819 820 821 822 824 825 826 827 827 828 830 830 832 834 835 837 838 839 839 840 841 842 844 845 846 848 849 850 850 851 851 852 853 855 856 857
813 811 809 807 806 804 802 800 797 796 794 793 791 790 789 789 788 789 789 789 791 791 792 793 795 796 795 797 799 800 800 801 801 802 803 803 804 805 806 807 809 810 811 812 814 815 816 817 817 818 819 820 821 823 824 825 827 827 829 830 832 833 834 835 836 837 838 838 839 840 841 842 844 845 847 847 848 849 849 851 851 852 853 854 855
815 813 811 809 807 805 803 801 799 797 796 794 793 791 791 790 790 791 791 791 791 791 792 793 796 799 798 797 800 801 800 801 802 803 804 804 804 806 807 808 809 810 811 813 814 815 816 817 817 818 819 820 821 823 824 825 826 827 829 830 832 833 834 835 835 836 837 837 837 839 840 840 842 844 845 846 847 848 849 850 850 851 851 852 853
817 815 813 811 809 807 805 803 801 799 797 796 795 793 793 792 792 793 793 793 792 792 792 794 796 800 800 799 801 802 801 801 803 803 804 805 806 806 807 808 809 810 812 813 814 815 816 817 817 818 819 820 821 822 824 825 826 827 828 829 831 832 833 834 835 836 836 835 836 838 838 839 841 843 843 845 846 847 848 849 849 849 850 850 850
819 817 815 813 811 809 807 805 803 801 799 798 797 796 795 794 794 794 795 795 794 793 794 795 797 800 801 802 802 802 801 802 804 804 805 806 807 807 808 809 809 810 811 812 814 815 816 817 818 819 820 820 822 823 824 825 826 827 828 830 831 832 833 834 835 836 836 835 836 838 838 839 841 842 843 844 845 846 847 848 848 848 849 848 847
821 818 816 815 812 811 809 807 805 804 802 801 799 798 797 796 796 796 796 796 795 795 796 797 799 800 801 803 803 801 802 803 804 805 806 806 807 807 808 808 809 810 811 813 814 815 816 817 818 819 820 822 823 824 825 826 827 828 829 830 832 833 834 834 835 836 837 837 837 839 839 840 841 843 843 844 845 846 846 847 847 848 848 847 847
822 820 818 816 815 813 811 810 808 807 805 804 802 801 801 800 799 798 798 798 798 798 799 799 800 801 802 803 803 802 803 804 805 806 806 806 807 807 808 809 810 811 812 813 814 816 817 818 819 820 822 823 825 825 826 827 828 830 831 832 833 833 834 835 835 836 837 838 838 839 840 841 841 843 843 844 845 846 845 846 846 847 847 847 848
824 822 820 819 817 816 814 812 811 810 809 807 806 805 805 804 803 802 802 802 802 801 801 802 803 803 803 804 804 804 804 805 806 806 807 807 808 808 809 809 810 811 812 814 815 817 819 820 820 821 823 824 826 827 828 829 829 831 832 833 833 833 834 835 835 836 837 838 838 839 839 840 841 842 843 844 845 845 845 846 846 847 847 847 848
826 825 823 821 820 818 817 816 814 813 813 811 810 810 809 808 807 807 806 805 805 804 803 804 805 805 805 806 806 806 806 806 807 808 808 809 809 809 810 811 812 813 813 815 816 817 819 821 822 823 824 825 827 827 829 830 831 832 833 833 834 834 835 835 836 836 837 837 838 838 839 839 840 841 842 843 844 845 845 846 846 847 847 846 846
829 827 826 824 823 822 820 819 817 817 816 815 815 814 813 812 811 811 810 809 808 807 806 807 808 807 807 808 809 808 807 808 809 810 811 811 811 811 811 812 813 813 814 814 816 817 818 820 822 824 825 827 828 829 829 831 832 832 833 834 835 836 836 836 837 837 837 838 838 839 839 840 840 841 842 842 843 844 845 846 846 846 846 845 844
831 830 829 828 826 825 824 822 821 820 819 818 818 818 817 817 816 815 814 813 812 811 811 810 810 809 809 811 811 810 810 810 811 812 813 814 813 813 813 814 814 815 816 816 817 819 821 821 822 825 827 829 830 830 830 831 832 833 833 834 835 836 836 836 837 837 838 838 839 839 840 840 841 841 842 843 843 844 845 845 846 846 846 846 846
834 832 832 831 829 828 827 826 824 823 822 821 821 821 821 820 820 819 818 817 815 815 814 814 813 813 814 814 814 813 813 814 814 815 815 816 815 816 816 817 817 818 819 819 820 821 823 824 826 827 829 830 830 831 831 832 833 833 834 835 836 836 836 837 837 838 839 839 840 840 840 841 842 842 843 843 844 845 845 845 846 847 847 847 847
836 835 835 833 832 831 830 829 828 826 826 825 824 824 824 824 823 822 821 821 819 818 818 817 816 817 818 818 818 817 817 817 817 817 817 817 818 819 820 820 820 821 822 822 823 823 824 827 829 830 830 831 831 832 833 833 833 834 835 835 836 836 837 838 838 839 840 840 840 841 841 842 843 844 844 845 845 846 846 846 846 847 847 847 847
839 838 837 836 835 834 833 832 830 829 829 828 827 826 826 827 826 826 825 825 823 822 822 821 820 821 822 821 821 821 821 821 820 819 820 820 820 821 822 822 823 824 824 825 826 827 827 829 830 831 831 832 833 834 834 834 834 834 835 835 836 836 837 838 839 839 840 841 841 842 843 844 845 845 846 846 847 847 847 847 847 847 847 847 847
842 841 840 839 838 837 837 835 834 833 832 831 830 830 830 830 830 829 829 828 828 827 826 825 825 825 825 825 825 825 825 824 823 822 822 823 823 824 824 824 825 826 826 827 829 829 830 831 832 832 833 834 835 835 835 835 835 834 835 836 836 837 838 839 840 840 841 842 843 844 844 845 846 846 847 847 847 848 848 848 847 847 848 848 848
844 843 843 842 841 841 841 839 838 837 836 835 834 834 834 834 833 833 832 831 831 831 830 829 828 828 828 828 828 828 828 828 826 826 825 825 826 827 827 827 827 828 828 829 831 832 832 832 833 834 835 836 837 837 837 837 836 836 837 837 838 839 840 840 841 842 842 843 844 844 845 846 846 847 848 848 848 849 849 849 849 849 849 850 850
847 846 846 846 845 845 844 843 842 841 840 839 838 838 838 838 837 837 836 835 835 835 834 834 833 832 832 832 832 832 832 831 830 829 829 829 830 831 829 828 829 830 831 831 833 834 834 834 834 835 836 838 839 839 839 839 839 839 839 840 841 841 842 842 842 843 843 844 844 845 846 846 847 848 848 849 849 850 850 850 851 852 852 852 852
850 849 849 849 849 848 847 847 846 845 844 843 842 841 841 841 841 840 840 839 839 838 838 838 837 836 836 836 835 836 835 834 833 833 834 834 834 833 831 830 832 833 833 834 835 835 835 835 835 836 838 839 840 841 842 842 842 842 842 842 842 843 843 843 844 844 844 845 845 846 847 847 848 849 849 850 850 851 851 852 853 853 854 854 854
853 853 852 852 852 851 850 850 849 849 848 847 846 845 845 845 844 844 843 843 842 841 841 840 840 840 839 839 839 838 838 837 836 837 837 836 835 834 833 834 835 836 836 836 837 837 837 837 837 838 839 840 841 843 844 844 844 844 843 843 843 844 844 845 845 845 846 846 847 847 848 849 849 850 850 851 851 852 852 853 853 854 854 854 855
856 856 856 855 855 854 853 853 853 852 852 851 850 850 849 849 848 847 846 846 845 844 843 843 842 842 842 842 841 841 840 839 839 838 838 838 837 837 837 837 838 838 838 839 839 839 839 840 840 841 841 842 843 844 845 845 845 845 845 844 844 845 845 845 846 846 847 848 848 849 849 850 850 851 851 852 852 853 853 853 853 854 854 854 855
858 858 858 858 858 858 857 857 856 856 855 855 854 853 853 852 852 851 851 850 849 848 847 845 844 844 844 843 843 843 842 841 840 840 840 839 839 840 840 840 840 840 841 841 841 841 842 842 843 843 843 844 845 846 846 846 846 846 846 846 846 846 846 846 847 847 848 849 850 850 851 851 851 852 852 853 853 854 854 854 854 854 854 855 855
860 860 861 860 860 860 860 860 859 859 859 858 857 857 857 856 856 855 855 854 853 852 850 848 847 846 846 845 845 844 844 843 843 842 842 842 841 841 841 842 842 842 843 843 843 843 844 844 844 845 845 846 846 846 847 847 847 847 847 847 847 847 847 847 848 849 850 851 851 852 852 852 852 853 853 854 854 854 854 854 854 854 854 854 854
863 863 863 863 863 862 862 862 862 861 861 861 860 860 860 859 859 858 857 857 856 854 853 851 850 849 848 848 847 846 846 846 845 845 844 844 843 843 843 844 844 844 844 845 845 845 846 846 846 846 847 847 847 847 848 848 848 848 848 848 848 848 848 849 849 850 851 852 852 853 853 853 853 853 854 855 855 855 856 855 855 855 854 854 854
865 865 865 865 865 864 864 864 863 863 863 862 862 862 862 862 861 860 860 859 858 857 855 855 853 852 851 851 850 849 849 848 848 847 847 846 846 846 846 846 846 846 846 846 847 847 847 848 848 848 848 849 849 849 849 849 849 849 849 850 850 850 850 850 851 851 852 853 853 854 854 854 854 854 855 855 856 856 856 856 855 855 854 854 854
867 867 867 867 867 867 866 866 865 865 864 864 864 863 863 863 863 863 862 861 860 859 858 857 856 855 854 853 853 852 852 851 850 850 850 849 849 849 848 848 848 848 848 848 848 848 849 850 850 851 851 851 851 850 850 850 851 851 851 851 851 852 852 852 852 853 853 854 854 854 855 855 855 856 856 857 856 856 857 856 856 856 856 856 856
869 869 869 869 869 868 868 868 867 867 866 866 866 865 865 864 864 864 863 863 862 861 860 859 859 858 857 856 855 855 854 854 853 852 852 851 851 850 850 849 849 849 849 849 849 850 850 851 852 852 852 852 852 852 852 852 853 853 853 853 853 853 853 853 853 854 854 855 855 855 856 856 857 857 858 858 858 858 858 857 857 857 857 857 858
872 872 871 871 870 870 870 870 869 869 869 868 868 867 867 867 866 865 864 864 863 862 862 861 861 860 859 858 858 857 856 856 855 854 854 853 852 852 851 850 850 850 850 851 851 851 852 852 853 853 853 853 853 854 854 854 854 854 854 855 855 855 854 855 855 855 856 856 856 856 856 857 857 858 858 858 858 858 858 858 858 857 858 858 858
875 875 874 873 873 872 872 872 872 871 871 870 870 870 869 868 868 867 866 866 865 864 863 863 862 862 862 861 859 859 858 857 856 856 855 854 854 853 852 852 852 852 852 852 852 852 853 853 853 853 854 854 854 854 854 855 855 855 855 855 856 856 856 856 856 856 856 857 857 857 858 858 858 858 858 858 858 858 858 858 858 858 858 858 858
876 876 876 876 875 875 875 875 874 874 873 872 872 872 871 870 869 869 868 868 867 866 865 865 864 863 863 862 861 860 859 858 858 857 856 855 855 854 853 854 853 853 854 854 855 855 855 855 855 855 855 855 855 855 855 856 856 856 856 856 857 857 857 857 857 857 857 858 858 859 859 859 859 859 859 859 859 859 859 860 860 860 860 860 860
878 878 877 877 877 877 877 877 877 876 875 874 874 873 873 872 872 871 870 870 869 868 867 866 866 865 864 864 863 861 860 859 859 858 857 857 856 855 855 855 855 855 856 857 857 857 857 857 857 857 857 857 857 857 857 857 857 857 857 857 858 858 857 857 858 858 858 859 859 860 860 860 860 860 859 859 859 860 860 861 862 862 862 862 861
881 880 880 879 879 878 878 878 878 877 877 876 875 875 875 874 874 873 872 872 871 870 869 868 868 867 867 866 865 864 863 861 860 860 860 859 858 858 858 858 858 858 859 859 859 859 859 859 859 859 859 859 859 858 858 858 858 858 858 858 859 859 859 859 859 859 860 860 861 861 861 860 860 860 860 860 860 860 861 862 862 862 863 863 862
883 883 882 881 881 880 880 880 879 879 878 878 877 877 877 876 876 875 874 873 873 873 871 871 870 870 870 869 867 866 865 864 863 863 862 862 862 861 861 861 861 861 861 861 861 861 861 861 861 861 860 860 860 860 859 859 859 859 859 859 860 860 860 860 860 860 860 861 861 861 861 861 860 860 860 861 861 862 862 862 863 863 863 864 864
884 885 884 884 883 882 882 881 881 880 880 879 879 879 879 878 877 877 876 875 875 874 873 873 873 873 873 871 869 868 867 866 866 866 865 865 864 864 864 864 863 863 863 862 862 862 862 862 862 862 862 862 861 861 861 860 860 860 860 860 860 861 861 861 861 861 861 861 861 862 862 861 861 861 862 862 863 863 863 863 864 864 864 864 865
885 886 886 885 884 883 883 883 883 882 882 881 880 880 880 879 879 878 878 877 876 876 875 874 875 875 875 873 871 870 869 868 868 868 867 867 867 866 866 866 865 865 865 864 864 863 863 863 863 863 863 863 863 862 862 862 861 861 861 861 861 862 862 862 862 862 863 863 863 862 862 862 862 862 863 863 864 864 864 864 864 864 865 865 865
885 886 886 885 885 885 884 884 884 884 883 883 883 882 881 880 879 879 879 878 878 877 876 875 875 876 876 875 873 872 871 870 870 869 869 869 869 868 868 867 867 867 866 866 865 865 864 864 864 864 864 864 864 863 863 863 862 862 863 863 862 863 863 863 864 864 864 863 863 863 863 863 863 863 864 864 864 864 864 864 864 865 865 865 866
886 886 886 886 886 886 885 885 885 885 884 884 884 884 882 881 880 880 879 879 879 878 877 876 876 876 875 875 874 873 872 872 871 871 870 870 870 869 869 869 868 868 868 867 867 866 866 865 865 865 864 864 864 864 864 864 864 864 864 864 864 864 864 864 864 864 864 864 863 863 864 864 864 864 864 864 864 864 865 865 865 865 865 866 866
887 887 887 887 887 887 886 886 886 886 886 885 885 884 883 882 881 880 880 879 879 878 877 877 877 876 875 875 874 873 873 873 872 872 872 872 871 870 870 870 869 869 868 868 867 867 867 866 866 865 865 865 864 864 865 865 865 865 865 864 865 865 865 865 865 865 864 864 864 865 865 865 864 864 865 865 865 865 865 865 865 865 865 866 866
887 887 887 887 886 887 887 886 886 886 886 886 885 884 883 883 882 882 880 879 879 879 878 877 877 877 876 875 874 874 873 873 873 873 873 872 872 871 871 870 870 869 869 869 868 868 867 867 867 866 866 866 865 865 865 865 865 865 865 865 865 865 865 865 865 864 864 864 865 865 865 865 865 865 865 865 865 865 865 865 866 866 866 866 866
888 887 887 887 887 887 887 886 886 886 886 885 885 884 883 883 883 882 881 881 880 879 878 877 877 876 876 875 875 874 873 873 872 872 872 872 872 871 871 871 871 870 869 869 868 868 867 867 867 867 867 866 866 865 865 865 865 865 865 865 865 865 865 865 864 864 864 865 865 866 866 866 866 865 865 865 865 865 865 866 866 866 866 866 867
888 888 888 887 887 886 886 887 887 887 886 885 885 885 884 883 883 882 882 881 881 879 878 877 876 876 876 875 874 874 873 873 872 872 872 872 872 871 871 871 871 870 870 869 869 868 868 867 867 867 866 866 866 865 865 865 865 865 865 865 865 864 864 864 864 864 865 865 865 865 866 866 866 866 866 866 865 865 866 866 866 867 867 867 867
888 888 888 888 887 887 886 886 886 886 886 885 885 884 884 883 883 882 881 880 880 879 878 877 876 875 874 874 874 873 872 872 872 871 871 871 871 871 871 871 870 870 870 869 869 868 868 867 867 866 866 866 865 865 865 865 865 865 865 864 863 863 863 863 863 864 864 864 865 865 865 866 866 866 866 866 866 866 866 866 866 867 867 867 867
888 888 888 888 887 887 886 886 885 885 885 885 884 883 883 883 882 881 881 880 879 878 877 876 875 874 873 873 872 872 872 871 871 871 871 870 870 870 870 870 870 870 869 869 868 868 867 866 866 866 866 865 865 864 864 864 864 864 863 863 862 862 862 862 862 863 863 864 864 865 865 866 866 866 866 866 866 866 866 866 866 866 867 867 867
888 888 888 888 887 887 886 886 885 884 884 884 883 882 882 882 881 880 880 879 878 877 876 875 875 874 873 872 872 871 871 871 870 870 870 870 869 869 869 869 869 869 869 869 868 867 867 866 866 865 865 865 864 864 864 863 863 863 862 862 861 861 861 861 861 861 862 862 864 865 865 865 866 866 866 866 866 866 866 866 866 867 867 867 867
888 888 888 888 887 887 886 886 885 884 884 883 883 882 881 881 881 880 880 879 877 877 876 875 874 874 873 872 872 871 870 870 870 869 869 869 869 869 869 869 868 868 868 868 867 867 866 866 865 865 865 864 864 864 863 863 862 862 861 861 860 860 859 859 859 860 860 861 862 864 865 865 865 865 865 866 866 866 866 866 867 867 867 867 867
Wind_Speed
11 11 11 10 11 12 11 11 11 11 11 10 11 12 11 12 12 11 11 10 9 8 6 6 8 10 13 14 15 16 16 16 16 16 17 16 15 15 14 15 17 16 15 15 15 14 14 15 14 11 10 10 10 10 10 9 9 10 9 10 9 8 8 6 7 8 7 8 9 9 10 9 9 9 9 8 8 10 9 7 7 8 7 7 10
11 11 11 11 12 12 11 11 11 11 10 8 8 8 8 8 9 10 10 10 9 7 7 6 6 8 12 12 12 14 15 16 16 17 16 14 13 15 15 15 15 14 13 13 13 12 12 13 12 11 10 10 10 10 10 10 10 11 11 11 10 10 10 7 9 10 9 9 9 9 9 8 8 9 9 9 9 9 8 8 8 7 7 8 8
12 12 12 12 12 12 11 11 11 11 10 7 6 6 6 7 7 8 9 10 9 8 9 8 6 8 12 13 14 13 13 14 15 14 15 14 14 14 16 16 15 14 13 13 13 13 12 12 11 11 10 10 10 10 10 11 11 12 12 11 10 12 10 7 8 11 11 10 10 9 9 8 7 8 8 8 9 9 8 8 8 7 7 7 8
14 13 13 13 12 12 11 10 10 11 10 7 6 6 6 7 6 7 9 9 9 9 11 10 9 12 13 14 15 14 12 13 13 13 14 15 15 14 14 15 14 14 13 13 13 13 12 12 11 10 10 10 10 10 10 11 12 11 12 11 10 12 11 7 7 9 11 10 9 8 9 8 7 8 8 8 8 8 8 8 8 8 7 7 7
15 15 14 14 13 12 12 10 9 10 10 8 6 6 6 7 6 7 8 8 8 9 10 11 13 15 15 13 14 16 15 13 13 13 14 15 14 13 12 12 12 12 11 11 12 11 11 11 11 11 11 10 10 11 11 11 12 11 11 12 12 11 10 9 8 8 9 9 9 7 7 8 7 7 8 8 8 8 8 8 8 8 8 7 7
16 16 15 14 13 12 12 11 10 9 9 9 8 6 6 6 6 6 6 7 7 8 8 9 11 14 14 15 15 15 13 12 11 12 13 12 11 11 10 9 10 10 10 10 10 10 11 11 11 11 11 11 11 11 11 11 11 10 9 10 12 12 11 9 8 8 8 8 9 8 7 8 8 7 8 8 7 7 8 8 8 8 8 8 8
17 17 16 15 14 13 12 11 11 10 9 9 9 8 6 6 5 4 5 6 6 6 6 8 8 9 10 13 14 13 11 11 11 10 11 10 9 9 9 9 10 10 9 9 9 9 10 10 11 11 11 11 11 11 11 10 9 9 8 7 9 11 10 9 9 9 8 8 8 8 8 8 8 7 8 8 7 7 7 8 9 9 9 8 8
17 17 17 16 15 15 13 11 11 11 10 9 8 7 7 5 4 4 5 5 5 4 4 5 6 6 8 9 11 12 11 10 9 9 9 9 8 8 9 10 11 10 9 9 9 9 9 9 10 11 10 10 10 10 10 10 8 9 9 8 8 10 10 9 9 9 9 8 8 8 8 8 8 6 6 7 7 7 7 7 7 8 9 9 9
17 18 18 17 17 16 14 13 12 12 11 10 8 7 7 5 3 3 4 3 3 4 4 4 4 7 12 11 8 8 9 8 8 9 9 8 9 9 10 11 11 10 10 10 9 9 9 9 10 11 11 10 11 11 11 10 9 8 9 9 8 9 9 9 9 9 9 9 8 8 7 7 8 7 7 8 8 7 6 7 7 7 8 8 8
18 19 19 19 19 18 16 15 13 12 12 11 9 8 8 6 4 3 1 0 2 5 6 5 3 4 9 12 8 7 9 9 9 10 9 9 10 10 11 11 10 10 10 10 10 9 9 10 11 11 10 10 11 11 11 12 10 9 9 9 8 8 9 9 9 9 9 9 8 7 7 7 7 7 8 8 7 6 6 7 8 7 7 7 7
18 19 19 19 20 20 18 17 15 14 13 11 10 10 9 7 5 4 3 2 3 5 7 7 7 4 4 7 6 8 9 9 9 11 11 10 10 10 10 10 10 10 10 9 10 9 9 10 11 10 9 10 11 11 11 12 11 10 11 12 11 9 8 7 7 7 8 8 7 7 7 7 6 7 7 7 8 7 7 8 8 8 8 8 7
17 18 19 19 20 20 19 18 17 16 14 13 12 12 11 8 7 7 6 4 5 6 8 9 10 8 5 5 6 7 8 9 9 10 11 10 10 10 9 9 9 10 10 10 10 10 10 11 10 10 11 12 13 14 14 13 13 12 12 13 12 10 8 6 5 4 4 5 5 5 5 5 5 5 5 5 6 7 6 6 7 6 6 7 7
18 19 19 19 19 19 19 18 18 17 16 14 13 14 13 11 9 9 9 8 8 8 10 11 11 9 6 6 6 6 8 10 10 10 9 8 9 9 8 8 9 9 9 9 9 10 12 13 13 14 16 15 15 16 16 14 13 12 11 10 9 8 7 6 5 4 3 2 4 3 1 2 3 3 4 4 4 5 6 6 6 5 5 6 5
19 19 19 19 19 19 19 18 18 18 17 15 15 16 16 15 13 11 10 11 13 13 13 14 13 11 9 8 6 7 8 10 10 9 7 6 7 7 7 7 9 9 8 8 9 10 11 13 15 16 15 13 13 14 14 13 12 11 10 9 9 7 7 6 6 5 4 2 2 4 4 4 4 5 5 4 2 2 4 4 4 4 3 2 2
18 19 18 19 19 19 19 18 17 17 17 16 16 16 15 16 15 14 14 14 16 16 16 15 14 13 12 11 9 9 8 8 8 6 6 7 7 7 6 7 8 9 10 10 10 9 9 9 12 14 12 11 12 12 11 10 10 11 10 9 8 8 7 7 6 6 5 4 5 6 6 6 6 5 5 4 2 2 3 2 2 2 3 4 5
18 19 19 19 19 19 18 18 17 17 16 16 16 16 16 15 15 16 16 16 17 18 17 16 16 14 13 12 12 12 11 8 6 5 6 8 8 7 8 9 9 10 12 13 11 11 10 9 10 12 12 13 14 14 12 10 9 10 10 9 8 8 8 8 7 6 6 6 6 6 6 6 6 5 5 5 3 3 3 3 3 3 4 6 6
19 18 18 18 18 19 18 18 17 16 16 17 17 16 15 15 14 14 16 17 18 19 19 18 18 17 15 15 15 15 13 11 8 7 7 9 8 8 9 11 10 10 12 13 12 12 13 13 12 10 10 12 14 14 13 11 8 9 10 9 9 8 8 9 9 7 6 6 6 6 5 5 5 5 5 5 5 4 3 3 3 3 4 4 2
19 18 18 17 17 18 18 18 18 17 16 16 16 16 16 15 13 13 14 16 19 21 22 22 21 21 19 17 17 18 17 14 11 9 7 7 8 9 9 10 11 11 11 12 12 11 12 13 13 11 11 12 12 11 12 10 7 8 10 10 9 8 8 9 9 8 7 5 5 5 4 4 4 4 4 3 4 4 3 2 2 1 1 1 1
18 18 17 17 17 17 18 18 19 19 18 16 15 15 15 15 14 14 15 17 18 21 24 25 25 24 22 20 19 20 19 17 15 14 11 9 10 12 12 13 15 16 15 14 15 15 13 12 11 11 10 9 8 8 8 6 5 6 8 9 10 9 7 8 8 7 6 6 6 6 5 5 5 4 4 3 3 4 4 4 4 2 1 1 2
18 17 18 17 17 17 18 19 20 21 20 19 20 20 18 16 16 16 17 18 20 24 26 27 28 26 25 23 23 22 20 18 17 17 15 14 13 12 12 13 14 16 16 14 13 14 13 10 9 9 8 6 6 6 6 6 6 7 6 7 9 9 7 8 9 8 6 7 8 7 6 6 6 5 4 4 3 3 3 4 4 4 2 0 1
17 17 19 19 18 18 18 18 20 22 22 22 25 26 25 23 22 21 19 18 19 23 25 27 29 28 27 25 25 23 21 19 17 16 14 13 12 10 10 11 10 10 12 12 10 11 11 10 9 9 8 6 5 4 5 6 7 8 8 8 10 11 10 9 10 10 9 8 8 7 7 6 6 5 5 5 6 6 6 5 5 5 5 4 1
16 17 19 20 20 20 19 19 22 26 28 29 28 28 27 26 26 25 24 22 22 23 25 26 27 27 27 26 25 25 23 21 19 18 16 14 12 11 11 11 9 8 11 12 12 11 11 10 10 10 8 7 6 5 5 5 6 9 9 9 11 13 12 10 10 9 9 8 7 6 6 6 5 5 6 6 7 7 8 8 7 6 6 8 8
16 17 18 20 20 21 20 20 21 24 28 31 33 32 30 30 29 28 28 27 24 23 25 28 28 28 27 25 24 24 24 23 21 20 19 17 15 13 13 11 9 9 12 14 14 13 12 12 11 11 9 8 8 8 8 9 10 12 13 12 12 12 11 9 7 7 7 7 6 6 5 5 6 6 6 7 8 8 9 9 10 8 7 8 9
17 18 18 18 19 20 21 21 22 24 26 28 29 29 28 29 29 28 29 28 24 20 19 21 23 24 26 25 23 22 22 22 22 21 20 19 17 16 15 14 11 10 11 13 13 12 12 13 13 12 11 10 10 10 11 12 15 16 15 14 12 10 8 7 6 6 6 6 6 6 6 5 6 6 7 8 8 9 10 9 10 10 10 9 9
18 18 18 17 17 18 19 20 22 24 26 28 29 28 27 26 26 25 24 23 22 20 17 15 14 15 18 20 21 20 20 20 20 19 18 18 18 18 18 17 14 12 12 13 13 12 12 14 14 12 11 11 11 12 12 14 15 16 15 14 11 8 6 6 5 5 5 6 6 7 7 7 7 8 8 8 7 7 8 7 7 8 8 9 9
18 18 18 18 17 17 17 18 18 19 20 22 25 27 28 27 27 25 23 20 20 20 19 16 13 13 13 13 15 17 18 18 18 17 17 17 18 17 17 16 15 14 13 13 13 12 12 12 11 11 11 12 12 12 13 14 13 12 12 12 10 8 7 6 5 4 5 6 7 7 7 7 8 8 7 6 5 5 4 5 5 5 5 6 7
19 19 18 18 18 18 18 18 18 19 19 18 18 19 21 24 27 27 23 19 18 20 21 19 16 14 13 12 12 14 16 16 15 14 15 15 16 15 14 13 12 11 11 11 10 10 10 10 10 10 11 11 12 12 13 13 12 11 11 10 10 10 8 7 6 6 7 7 7 7 7 7 7 7 6 6 6 5 4 4 5 5 4 4 4
18 18 18 17 18 18 18 18 18 19 21 22 22 20 18 18 22 25 24 21 18 18 19 20 18 15 13 12 12 14 17 17 15 13 12 11 11 10 10 9 8 7 7 8 8 8 8 9 10 11 11 11 11 11 12 12 11 11 11 10 11 11 9 8 8 8 7 7 7 6 6 6 6 6 6 6 6 5 5 5 4 4 4 3 3
17 16 16 16 16 16 17 17 17 17 18 20 23 24 22 19 18 21 24 25 23 19 19 20 19 14 13 14 14 14 16 18 16 14 12 10 10 9 8 7 6 5 5 6 7 7 7 8 9 10 11 12 12 11 10 11 10 10 10 10 10 10 9 8 8 8 7 6 6 5 5 6 6 5 5 5 5 4 4 4 4 4 3 3 3
16 16 15 15 14 14 14 15 15 15 14 14 16 18 21 21 20 20 22 24 24 23 23 23 20 14 11 12 13 14 15 16 15 14 13 12 12 11 10 9 8 6 5 5 5 7 8 9 9 10 11 12 11 10 10 10 10 10 10 9 9 9 9 8 8 7 6 5 5 5 6 6 6 5 5 5 4 4 4 4 4 4 4 3 4
14 14 15 14 13 13 13 13 13 13 13 12 12 11 13 17 19 21 22 22 22 23 23 24 23 19 14 12 12 13 15 15 14 14 14 14 13 12 10 9 8 7 6 4 3 5 7 7 7 8 8 9 9 10 10 10 10 9 9 10 10 9 8 8 7 6 6 6 6 6 6 5 5 5 5 5 5 5 4 4 4 4 3 4 4
12 13 13 13 12 12 12 12 12 12 13 13 13 11 10 11 13 16 19 21 22 23 24 23 23 22 20 16 14 14 14 14 14 14 15 14 14 12 10 7 6 5 5 3 2 5 6 6 6 5 5 6 6 7 8 7 7 6 6 7 8 7 6 7 7 5 5 5 6 6 6 6 5 5 5 5 5 5 5 5 5 5 5 6 6
13 12 11 11 11 11 11 11 12 13 13 13 13 13 12 11 10 10 12 14 17 20 23 24 24 22 20 18 16 14 13 13 13 13 14 15 15 13 11 9 7 5 4 4 4 5 5 5 5 4 4 4 4 4 4 4 4 4 4 5 5 5 6 7 7 5 5 5 6 6 6 6 5 6 6 5 5 5 5 5 6 7 7 7 6
15 14 12 11 11 11 11 11 11 12 12 13 13 13 13 12 11 10 9 9 10 13 16 20 22 22 19 17 15 13 12 12 11 11 12 15 16 14 12 11 10 7 6 5 3 4 4 3 3 3 3 4 3 3 3 3 3 3 4 5 5 6 6 6 5 5 6 6 5 6 6 6 6 6 6 5 5 5 6 6 6 7 7 6 6
14 14 13 12 11 11 11 11 11 11 12 12 13 13 12 12 11 11 11 11 10 11 12 13 17 20 20 17 14 12 10 10 10 10 11 13 13 11 10 9 8 8 7 5 3 3 2 1 1 1 1 1 2 2 2 2 3 3 4 4 5 5 5 5 5 6 6 6 6 6 6 6 6 6 5 5 5 6 7 7 7 6 6 5 5
11 11 12 11 11 11 11 12 12 12 12 12 12 13 13 13 12 11 11 12 11 12 12 12 12 15 18 19 17 14 11 11 10 10 10 10 10 9 7 6 6 6 7 6 5 5 4 3 3 2 2 2 2 2 2 2 3 3 3 4 5 5 5 6 6 6 6 6 7 7 7 7 6 6 6 6 6 7 7 7 7 6 5 5 4
12 11 10 10 10 10 11 11 11 11 11 11 12 12 13 13 12 11 12 13 12 12 13 14 13 13 15 17 18 16 13 12 12 12 11 10 11 9 7 6 7 7 7 7 7 6 6 5 5 4 4 3 3 3 3 3 3 3 4 4 5 5 5 6 7 7 7 7 7 6 6 6 6 5 6 7 7 7 7 7 7 7 5 3 3
14 14 13 11 10 9 10 10 10 10 10 11 12 13 13 13 13 12 11 12 13 13 13 14 15 15 15 15 15 14 13 13 13 12 12 12 12 10 9 8 8 8 8 8 7 6 6 6 5 5 4 4 3 3 4 4 4 4 5 5 5 5 6 8 8 7 7 8 7 6 6 6 6 6 7 7 7 7 7 7 7 6 5 4 5
13 14 13 12 11 10 10 10 10 10 11 10 11 11 12 12 13 12 12 12 13 13 13 14 14 15 14 13 13 13 13 13 13 13 12 12 12 11 10 10 9 8 8 7 7 7 6 5 5 4 4 4 4 4 4 4 5 5 5 6 7 7 7 8 8 7 7 7 7 7 6 6 6 6 7 7 7 7 7 7 6 6 6 6 6
11 12 12 11 10 10 10 10 10 11 11 11 11 11 11 12 12 12 12 12 12 12 12 13 13 13 13 12 12 12 12 12 12 12 12 12 11 11 10 10 9 9 8 7 7 7 6 5 5 4 4 4 4 3 4 4 4 5 5 6 6 7 7 7 7 7 7 6 7 6 6 6 6 6 6 6 7 7 7 7 6 6 6 6 6
9 10 10 10 10 10 10 10 11 11 11 11 12 11 11 11 12 12 12 13 12 11 11 11 11 12 12 12 12 11 11 11 10 10 10 10 9 9 9 9 9 9 8 7 7 7 6 5 4 4 3 4 4 3 4 4 4 4 5 5 6 6 6 6 6 6 6 6 5 5 5 5 4 5 5 5 6 6 6 6 6 6 6 5 5
7 8 8 9 9 9 9 9 9 10 10 11 11 11 10 10 10 10 11 11 12 11 11 10 10 9 10 12 12 10 9 9 9 9 9 8 8 7 7 7 7 7 7 7 7 6 6 5 4 3 3 3 3 3 4 3 4 4 4 4 5 5 5 6 5 4 4 4 4 5 5 4 3 4 4 4 5 5 4 4 5 5 5 5 4
6 6 7 7 8 8 8 8 8 9 10 9 8 9 10 10 9 9 9 10 11 11 10 10 10 8 8 9 10 9 8 8 8 8 7 7 6 6 6 6 6 6 6 6 6 5 5 5 4 3 3 2 3 3 3 3 3 3 4 4 4 4 4 4 4 3 4 5 5 4 4 2 3 4 4 3 3 4 4 3 3 3 3 3 3
5 5 5 6 6 6 7 7 7 8 9 7 5 7 9 9 9 9 9 8 9 9 9 9 10 9 8 8 8 9 9 8 8 7 7 6 5 5 5 5 5 5 5 5 5 5 5 4 4 3 2 2 2 2 2 1 2 2 2 2 3 3 2 2 2 3 4 4 4 3 2 2 2 3 4 3 3 3 3 3 2 2 2 2 2
4 4 4 5 5 5 6 6 6 7 7 7 6 7 8 8 8 9 9 8 9 9 8 8 8 8 8 9 9 9 9 9 8 7 7 6 5 5 5 4 4 4 4 4 4 4 4 3 3 3 2 1 1 1 0 1 1 1 1 1 1 1 1 1 2 3 3 3 2 2 2 2 1 2 2 3 2 2 2 2 2 1 1 1 1
4 3 3 4 5 5 5 6 6 6 6 7 7 7 8 8 8 8 8 8 9 9 8 8 7 8 8 8 8 8 8 8 8 7 7 6 6 6 5 5 4 4 4 4 4 4 4 3 2 2 2 2 1 1 1 1 2 2 2 2 2 2 2 2 1 1 1 1 1 1 1 0 0 0 1 1 1 1 2 2 1 1 1 0 1
3 3 2 3 4 4 5 5 5 4 5 6 7 7 7 8 8 7 7 7 8 8 8 8 8 8 8 8 8 8 8 8 8 8 7 6 5 5 4 4 3 4 4 3 3 3 4 3 2 2 3 3 3 2 1 1 2 2 2 3 5 6 5 4 3 2 2 3 2 1 1 1 1 1 2 2 1 1 2 2 2 1 1 1 1
3 2 2 2 3 4 5 4 4 4 5 6 6 7 7 7 7 8 8 8 8 9 9 9 9 9 9 8 8 8 9 8 8 7 7 6 5 5 4 3 3 4 4 3 3 3 3 3 4 4 5 5 4 3 2 2 2 2 2 4 6 7 7 7 6 6 5 5 4 4 3 2 3 2 1 2 2 2 2 2 2 2 2 2 2
2 2 2 2 3 3 4 5 4 5 5 6 6 7 7 7 7 8 8 8 9 9 9 10 10 10 9 9 8 9 9 8 7 7 7 6 6 6 5 4 5 5 4 3 3 4 5 5 5 5 5 5 5 4 3 3 2 3 4 5 6 6 7 8 9 9 7 6 4 4 4 4 3 3 3 3 3 3 2 2 2 2 2 2 2
1 1 2 2 2 3 4 4 5 5 5 5 6 7 7 7 8 8 8 8 9 9 9 10 10 10 9 8 8 9 9 8 7 7 7 6 6 6 5 5 5 6 4 3 3 4 5 5 6 7 7 7 6 5 4 4 4 5 5 6 6 6 7 8 9 9 9 8 7 5 4 4 4 3 3 4 4 4 3 3 3 4 4 3 4
0 1 1 2 3 4 4 4 5 6 5 5 6 7 7 7 8 8 8 8 9 9 9 10 10 10 9 8 8 8 8 8 8 8 7 7 7 7 6 5 5 6 5 5 5 4 4 4 5 5 6 7 7 6 5 5 6 6 6 6 7 7 7 7 8 9 10 11 9 6 4 5 5 4 4 4 4 4 5 5 4 5 5 5 5
Wind_Direction
335 330 324 322 319 314 311 310 309 303 291 280 272 267 259 250 239 224 217 213 211 204 195 202 195 182 191 203 203 197 191 189 190 190 187 188 185 176 179 186 186 191 195 189 187 189 189 190 194 195 189 188 188 188 193 191 193 200 197 199 198 191 205 200 143 140 145 150 156 152 154 158 154 154 152 155 158 143 142 158 151 142 148 169 176
342 337 329 326 323 319 315 310 309 308 300 291 280 268 263 255 235 221 218 213 209 198 180 188 204 198 201 209 209 203 198 193 190 189 186 183 179 175 177 184 186 192 196 190 186 186 186 188 190 187 187 191 190 191 193 191 194 198 198 202 195 183 198 192 148 147 150 148 153 151 156 164 158 158 159 159 163 158 154 159 159 160 164 163 167
348 343 336 331 328 327 323 313 308 308 304 303 297 278 270 262 238 221 217 211 201 188 178 179 198 212 216 219 218 210 202 199 194 188 183 177 173 175 180 186 189 191 192 188 183 182 181 184 185 184 187 190 190 192 192 193 200 200 197 202 188 171 188 200 161 154 153 152 157 155 157 166 162 161 166 163 164 168 167 167 167 167 168 168 174
352 348 341 335 332 334 333 323 314 312 309 309 310 295 282 270 248 226 217 206 192 178 171 170 188 208 213 214 219 216 206 202 195 186 181 175 171 175 179 183 188 189 187 183 179 177 177 181 182 183 187 188 189 193 193 195 205 205 194 192 183 168 173 187 171 158 155 157 163 159 157 166 168 164 167 166 169 174 175 175 174 171 174 177 177
354 352 347 340 336 339 341 336 326 320 317 319 319 305 289 278 260 234 219 208 192 180 174 177 192 203 198 191 204 209 202 199 191 181 178 174 173 176 177 180 186 188 184 179 176 173 173 178 181 182 187 189 189 192 194 196 202 207 196 183 177 171 169 174 172 165 164 162 162 164 165 168 170 170 174 173 173 179 181 180 183 180 179 181 181
360 357 352 347 343 345 347 345 341 335 331 332 331 320 302 292 276 243 221 213 202 190 185 186 194 199 189 180 190 198 193 190 187 181 177 175 175 175 175 179 182 183 182 175 172 173 171 176 181 183 187 190 189 189 190 192 199 205 199 183 174 167 165 172 172 169 175 172 165 172 179 177 176 179 184 184 179 181 180 180 188 188 185 188 190
5 1 359 356 352 350 349 350 352 350 346 345 342 337 330 319 303 270 233 218 212 205 201 198 194 189 179 176 180 179 180 187 187 182 181 178 180 179 175 177 176 174 174 168 166 170 171 174 178 180 187 188 186 187 184 186 196 197 190 188 179 165 165 176 175 174 185 187 180 183 186 185 188 191 191 192 191 190 187 185 189 190 190 198 198
7 5 5 4 360 356 352 352 357 357 356 355 349 343 340 337 316 276 246 231 224 216 203 194 185 168 156 167 175 168 173 188 182 181 189 185 182 181 176 175 172 167 167 165 165 167 167 172 175 177 185 186 180 181 181 180 187 186 179 181 178 169 172 181 183 186 193 194 194 192 188 187 191 191 188 190 198 205 203 200 197 189 187 197 204
13 11 12 9 6 3 360 359 360 359 1 0 355 350 352 354 338 283 256 248 217 190 177 163 174 178 164 164 175 166 162 175 180 185 194 187 179 178 175 173 169 165 167 167 165 163 158 161 170 176 184 184 176 177 180 177 174 173 174 175 175 177 182 185 190 197 200 200 201 196 194 197 194 190 191 197 205 207 200 205 213 201 191 198 203
20 19 17 14 10 10 9 8 6 6 9 7 0 359 5 8 359 342 333 311 179 186 189 168 165 206 177 166 182 193 173 176 189 191 189 183 179 176 174 174 172 170 172 171 167 161 155 164 176 179 182 183 181 182 187 184 180 178 176 175 177 183 188 192 196 200 202 205 204 199 204 208 197 193 196 197 201 199 191 202 214 208 204 211 199
25 25 23 19 16 16 14 12 11 14 17 16 13 12 18 27 25 29 63 103 161 178 184 169 154 164 169 160 187 210 195 190 194 186 180 179 178 176 176 177 175 175 177 176 170 160 153 162 173 175 177 178 174 172 172 171 171 173 170 167 167 168 174 183 189 196 209 213 204 205 217 210 192 194 196 189 191 197 199 206 215 212 211 223 214
28 27 26 23 22 20 17 15 15 17 20 23 25 25 28 37 43 47 70 112 156 157 154 159 162 163 162 170 194 203 190 186 184 178 179 182 183 183 182 179 179 180 179 178 172 162 152 148 145 148 155 154 148 146 144 142 143 146 147 151 155 157 158 157 157 173 209 224 211 211 224 211 189 188 187 183 183 190 195 200 210 215 215 239 245
31 30 28 25 24 21 19 19 18 19 25 29 36 41 42 45 50 56 76 108 129 128 124 133 152 161 152 156 173 173 170 174 175 173 178 186 187 187 184 180 180 179 177 174 170 166 158 146 137 139 142 138 136 139 139 135 133 132 131 134 137 140 145 146 144 144 158 216 210 194 192 185 172 152 144 154 164 181 201 200 199 209 216 238 251
35 32 28 25 24 23 23 23 22 23 27 31 40 49 52 53 59 67 84 103 110 111 110 112 123 131 123 118 128 138 149 161 166 168 174 177 175 174 171 170 167 163 161 158 155 156 153 144 139 138 134 131 134 137 135 132 128 121 115 113 114 117 128 137 140 133 122 126 157 137 107 109 124 128 139 150 157 196 223 213 195 201 200 190 159
35 31 27 25 24 24 25 27 27 27 28 31 38 45 50 52 57 68 84 94 99 105 106 101 103 110 108 101 102 107 119 138 150 160 169 162 150 138 132 137 138 133 127 123 121 123 125 129 135 134 132 137 142 139 136 135 130 124 116 112 123 139 146 146 145 140 130 123 126 129 129 128 128 136 151 155 160 203 217 201 184 191 174 169 166
35 30 27 25 25 27 29 30 32 33 34 36 39 41 44 49 52 61 75 83 88 97 102 96 91 96 101 98 94 94 99 108 117 128 144 146 136 119 111 114 113 111 114 114 117 121 118 116 126 133 143 156 154 146 142 141 136 133 125 119 132 147 147 147 150 153 155 156 153 153 158 157 156 167 180 176 166 177 197 195 193 204 208 215 198
35 32 28 26 28 30 32 34 36 38 39 41 42 41 41 44 47 51 61 67 70 78 87 88 85 87 93 92 86 86 90 94 100 114 128 127 116 105 112 121 119 115 121 132 141 141 132 127 125 125 144 163 162 152 147 146 147 146 137 128 133 136 136 143 149 152 159 166 168 168 168 165 166 175 189 190 172 165 188 200 193 204 219 243 237
36 35 32 30 32 36 38 39 39 40 42 45 47 47 46 47 47 47 54 59 63 70 77 80 80 80 83 84 82 82 84 88 96 107 116 113 101 92 100 114 110 98 102 116 120 115 115 122 128 135 150 161 162 158 154 149 152 157 149 142 144 143 140 145 148 149 151 153 151 151 149 145 145 151 161 175 171 162 170 172 156 197 254 305 16
38 39 39 37 38 41 44 47 47 48 49 50 50 49 49 51 52 53 57 60 63 70 74 77 78 77 77 79 80 80 81 86 94 97 97 96 94 87 86 92 94 91 92 95 97 100 102 104 113 129 141 143 144 153 158 154 154 160 157 154 154 153 147 144 142 137 132 132 134 136 138 133 127 133 141 146 156 160 168 167 140 77 10 46 41
43 44 45 46 45 46 50 54 56 57 56 59 63 62 58 56 57 60 60 60 64 69 72 75 77 76 73 75 76 74 74 79 86 91 92 89 87 86 87 87 90 94 96 91 88 96 102 99 98 107 112 114 129 156 174 175 162 153 157 161 156 150 145 145 144 138 132 136 137 133 130 125 116 113 119 115 112 120 140 152 124 70 19 302 207
49 50 51 51 50 50 51 55 61 65 66 68 70 70 68 67 67 66 64 60 61 65 67 72 75 74 71 71 71 69 68 72 77 81 84 83 80 88 98 101 103 106 106 106 103 101 103 103 100 96 94 101 123 152 171 178 172 161 159 159 151 144 140 139 139 136 131 130 129 121 117 117 112 109 109 99 89 85 86 96 99 77 47 24 25
50 53 55 55 55 55 56 59 65 69 72 73 72 71 72 73 72 71 69 66 65 65 66 68 69 69 68 68 68 65 63 67 73 77 81 83 84 92 103 108 118 123 117 115 116 113 112 112 104 92 88 93 104 115 125 140 151 144 133 130 132 133 131 128 129 130 128 127 128 126 127 129 123 118 112 99 89 82 76 75 82 90 79 53 45
51 53 55 57 58 60 62 62 64 66 70 72 73 71 71 73 73 74 73 71 68 64 65 67 66 65 63 63 64 64 62 63 67 70 75 80 83 88 96 100 108 122 122 118 114 111 113 112 104 94 88 87 93 101 106 110 113 112 110 113 121 122 117 116 122 128 128 129 127 122 121 124 120 114 107 98 90 85 79 76 74 74 80 76 66
56 55 55 57 60 63 63 61 63 67 70 72 72 70 68 68 68 67 68 68 66 59 56 61 64 65 65 62 60 60 60 61 64 65 67 73 76 78 83 85 88 103 114 113 109 108 107 104 99 96 95 96 100 105 109 110 109 108 108 110 110 106 102 104 111 116 118 122 121 114 108 109 110 106 100 97 95 90 84 82 81 77 74 78 79
59 58 56 55 58 63 63 61 62 64 66 68 68 67 65 63 60 57 55 56 57 54 50 48 50 57 64 63 60 58 57 58 62 63 64 68 71 71 72 73 74 82 92 95 95 96 97 99 100 104 110 115 116 116 117 115 114 116 114 106 94 84 84 93 103 111 115 115 114 110 104 103 104 102 100 101 102 101 96 91 90 89 87 86 85
61 60 58 57 55 57 59 58 56 54 56 59 62 62 61 59 56 53 49 44 45 45 42 37 36 40 47 52 54 55 54 55 59 62 61 61 62 64 66 67 68 72 79 84 88 91 94 99 107 118 124 126 126 126 125 122 120 121 117 108 98 87 76 76 85 97 103 103 103 104 105 107 108 106 104 106 106 106 112 115 109 105 108 109 102
62 61 60 59 57 55 55 55 53 51 49 49 51 52 52 53 52 49 44 38 37 39 38 35 32 31 32 36 43 48 51 52 54 58 60 60 59 59 60 64 68 72 79 85 91 98 106 116 125 130 133 134 136 136 134 130 127 120 110 104 101 93 85 85 87 86 90 97 99 100 104 109 112 109 103 101 99 96 98 107 108 107 110 114 113
64 64 62 61 61 59 58 58 57 56 53 50 49 47 45 47 49 47 44 38 35 35 35 34 33 29 25 26 33 39 42 44 46 47 49 54 60 59 57 61 66 75 91 102 106 110 120 132 137 137 139 141 142 142 141 139 134 124 114 106 100 93 87 90 91 85 84 93 99 104 111 113 112 112 106 98 95 95 93 93 96 102 110 115 117
64 64 62 62 64 63 62 62 61 61 60 57 54 52 49 49 52 50 47 45 42 40 36 35 35 33 28 29 34 36 34 35 39 44 46 49 55 55 53 59 69 82 102 117 124 130 138 145 148 149 150 149 145 142 141 139 135 128 121 116 111 104 97 96 96 89 87 97 106 111 120 122 119 118 117 109 99 91 87 90 99 109 118 122 117
66 64 61 61 63 64 64 64 62 61 60 60 60 57 53 52 53 51 48 45 44 44 43 40 40 43 42 39 40 41 38 36 38 46 53 56 56 56 57 59 64 73 84 103 127 140 143 145 147 149 153 154 150 145 142 141 136 131 127 124 122 117 111 107 104 100 102 110 115 117 124 129 129 126 122 119 114 105 99 104 112 118 125 123 110
66 65 62 60 59 61 62 61 58 56 55 54 56 60 59 56 53 51 50 48 45 44 44 42 43 48 54 52 46 44 46 47 49 52 55 56 55 55 57 57 59 62 62 70 121 138 133 128 127 131 138 143 143 140 138 136 132 130 132 133 128 118 109 106 105 108 114 116 116 121 127 128 122 120 120 123 123 117 112 110 111 114 117 113 108
64 64 64 62 60 60 60 57 53 50 49 47 46 47 54 60 60 58 55 51 47 44 43 41 40 42 46 49 49 48 49 52 55 56 55 52 47 43 41 39 36 39 38 38 96 121 113 105 102 103 108 114 121 127 127 123 120 123 133 135 126 115 114 118 115 113 121 123 120 122 129 130 124 121 124 128 125 118 112 109 106 103 101 100 103
59 59 60 62 62 60 58 55 52 48 47 46 45 43 43 46 53 60 57 50 45 42 40 39 36 35 38 41 42 44 47 48 51 53 49 40 31 30 34 30 19 25 44 55 85 98 93 88 89 85 80 81 86 97 101 99 105 122 139 140 127 117 122 127 121 112 114 115 111 114 123 127 126 124 124 125 121 114 110 111 112 110 106 104 107
63 59 54 55 59 59 56 53 52 50 48 47 45 45 44 42 41 42 41 39 40 38 35 32 30 29 30 33 33 34 36 35 37 40 35 24 21 28 38 35 31 47 65 69 81 94 91 93 97 85 76 78 78 84 96 105 116 129 138 139 131 124 125 125 119 116 119 117 111 115 123 128 132 135 134 132 126 117 110 105 106 109 109 107 109
70 65 58 56 59 59 56 54 51 49 48 48 45 42 41 39 38 38 35 30 29 31 30 27 25 24 23 23 26 28 26 23 23 22 15 13 20 35 44 40 39 51 57 55 55 59 53 54 73 56 63 86 97 109 123 132 136 140 141 142 142 141 139 138 132 127 127 124 120 124 129 132 135 134 127 121 117 112 109 106 104 105 107 104 97
65 63 60 59 61 60 58 55 52 48 44 44 46 43 39 35 34 35 36 31 24 24 26 24 23 23 22 20 20 23 26 25 22 16 11 17 31 42 40 36 42 47 48 51 52 46 42 42 39 39 57 73 91 111 121 127 134 140 143 148 149 143 136 136 135 133 131 129 129 132 133 130 129 128 122 118 112 104 101 101 100 97 95 93 88
55 52 51 55 61 66 64 58 52 48 44 42 43 41 37 35 33 34 36 34 26 23 24 22 19 19 20 19 17 18 22 28 30 28 29 38 49 49 40 39 48 50 50 51 50 47 51 54 53 58 67 67 73 93 107 118 123 126 132 140 144 143 138 135 133 133 135 134 132 131 129 125 125 126 123 118 115 112 111 108 104 99 93 85 79
57 53 50 49 53 62 63 56 48 43 41 41 41 38 35 33 33 34 36 35 30 25 24 24 22 20 19 19 20 24 28 33 38 40 42 45 50 53 53 54 56 58 57 54 51 50 51 51 52 56 57 57 68 86 100 112 116 118 125 129 130 135 141 139 134 131 133 134 132 130 130 128 124 118 111 106 106 111 118 120 118 112 101 81 68
64 59 55 53 54 58 57 54 51 46 39 36 38 38 35 33 33 34 33 32 31 28 25 25 26 25 21 19 24 30 35 40 43 44 45 47 50 53 57 58 56 56 56 53 49 48 47 46 47 50 51 60 71 83 98 109 113 117 122 124 126 129 132 133 133 133 134 134 135 134 129 120 111 107 106 107 108 109 111 113 111 105 95 81 67
65 60 57 57 62 63 58 53 52 48 41 37 36 37 36 34 35 35 33 31 30 29 25 27 31 29 26 27 30 29 30 39 44 43 43 45 46 47 51 52 50 50 49 45 43 43 40 40 42 43 47 58 68 79 94 103 111 119 125 129 132 132 131 132 134 135 134 134 134 131 123 111 106 109 111 113 114 113 112 109 103 97 95 89 76
71 68 63 59 61 62 58 54 51 47 42 38 36 35 36 35 35 36 35 31 30 29 27 29 34 33 29 35 42 39 31 33 38 38 38 40 41 41 42 43 43 43 42 38 38 37 36 38 43 45 52 60 64 76 93 102 109 117 123 129 132 131 131 132 131 131 132 131 123 116 114 112 111 113 117 119 122 121 120 117 113 105 98 89 77
72 72 67 60 58 58 55 52 51 47 42 39 36 34 33 34 34 34 34 31 29 28 25 25 31 34 30 33 41 43 33 27 29 30 29 30 33 34 35 36 36 35 34 32 32 32 33 36 39 42 57 69 70 74 86 99 110 117 123 129 132 133 132 130 125 117 112 109 95 87 94 107 119 123 128 139 142 134 121 115 110 103 94 83 70
74 71 66 58 56 56 52 49 49 43 36 36 37 34 31 30 30 31 31 29 26 25 25 23 21 22 22 26 30 29 21 15 17 18 17 19 21 21 21 24 27 27 26 25 25 23 23 28 32 42 60 76 86 90 92 89 97 114 128 130 130 134 135 130 124 103 84 84 88 93 96 101 124 135 140 147 141 127 119 117 113 106 102 93 71
83 79 70 60 57 55 48 44 44 39 32 30 35 32 28 27 26 24 24 24 20 18 20 21 18 14 14 15 15 12 8 6 6 5 3 4 6 6 5 7 12 12 12 15 18 16 14 15 23 40 54 62 79 95 103 91 87 107 132 137 136 142 137 115 97 80 76 77 83 102 114 103 111 132 140 142 142 140 135 132 123 102 96 89 69
82 77 73 64 58 53 45 37 38 36 30 25 27 25 22 22 21 18 15 15 12 8 8 11 11 8 7 7 6 3 2 0 357 355 352 350 352 356 359 0 1 359 0 5 8 10 10 9 9 18 28 31 37 45 277 254 219 165 166 167 159 150 129 110 92 91 97 92 67 70 120 125 101 115 132 137 156 168 149 130 129 133 128 82 57
84 73 70 65 54 48 41 33 32 31 26 21 20 16 13 14 13 8 4 4 2 358 354 354 354 352 351 353 354 353 352 351 349 347 344 341 344 350 355 359 359 354 352 355 352 350 356 3 2 357 355 345 321 302 287 276 260 235 205 202 223 240 234 217 203 138 133 139 55 21 13 6 2 155 156 143 139 134 123 123 136 139 141 145 94
88 70 63 58 45 38 36 31 24 14 10 12 11 5 1 1 359 355 352 349 345 342 341 340 338 335 335 336 336 336 337 337 339 340 337 331 329 334 342 350 352 347 345 347 345 341 343 345 336 325 324 320 307 289 279 282 270 253 231 230 237 241 243 242 239 241 238 233 234 245 274 306 318 223 198 221 244 157 151 186 200 173 204 234 198
80 69 62 49 32 27 27 23 13 0 359 2 2 356 351 349 346 345 345 341 335 333 333 330 325 324 325 324 325 328 330 328 326 329 331 325 317 315 310 304 319 332 332 325 326 333 332 321 317 323 328 325 317 301 278 269 261 248 245 247 245 245 246 245 240 237 239 240 237 230 235 270 299 293 244 247 260 235 203 211 205 184 204 229 214
69 59 45 33 27 23 15 6 0 358 355 352 350 351 352 348 341 339 340 339 334 331 330 327 325 325 324 322 321 326 331 328 319 317 320 320 316 310 295 280 293 311 313 295 304 324 329 323 322 328 331 325 316 301 283 276 272 262 261 266 267 263 256 249 242 238 233 228 228 234 236 245 268 278 264 246 249 250 240 230 217 199 204 222 220
65 38 15 4 2 3 1 354 348 348 346 341 340 346 350 347 340 338 336 334 333 333 333 333 333 331 329 328 328 330 332 331 325 319 318 319 318 314 300 282 283 292 291 275 278 301 316 319 319 325 331 331 325 312 296 291 289 282 279 284 288 284 272 257 243 233 224 215 210 220 238 239 241 253 253 237 230 234 234 230 227 225 225 225 224
322 316 326 335 340 343 347 345 339 338 340 335 333 337 342 342 341 340 335 330 330 333 333 334 336 337 337 340 344 344 343 342 337 329 323 320 319 316 305 284 273 277 279 273 270 276 288 299 303 309 321 329 328 321 306 296 293 291 290 292 294 293 285 264 239 224 220 216 209 209 229 240 234 237 245 239 227 228 231 227 230 241 243 232 215